WN8IZV Weather Reports


Display with metric or nautical units.
time (UTC)temp
F
wind
direction
speed
MPH
gust
MPH
rain 1hr
in
rain 24hr
in
rain mn
in
humidity
%
barometer
mb
20260906081537 60 16 0.0 4.0 0.00 0.00 0.00 79 1017.0
20260906080037 60 352 1.0 3.0 0.00 0.00 0.00 79 1017.0
20260906074531 60 349 0.0 2.0 0.00 0.00 0.00 79 1016.8
20260906073027 60 359 0.0 4.0 0.00 0.00 0.00 79 1016.8
20260906071523 60 323 1.0 4.0 0.00 0.00 0.00 79 1016.6
20260906070022 60 330 0.0 4.0 0.00 0.00 0.00 80 1016.5
20260906064516 60 14 1.0 5.0 0.00 0.00 0.00 80 1016.4
20260906063018 60 335 2.0 5.0 0.00 0.00 0.00 80 1016.6
20260906061512 61 13 1.0 4.0 0.00 0.00 0.00 80 1016.6
20260906060008 61 354 1.0 4.0 0.00 0.00 0.00 80 1016.5
20260906054506 61 338 1.0 7.0 0.00 0.00 0.00 80 1016.3
20260906053002 61 356 0.0 3.0 0.00 0.00 0.00 80 1016.6
20260906051607 62 356 0.0 3.0 0.00 0.00 0.00 80 1016.7
20260906050105 62 354 1.0 4.0 0.00 0.00 0.00 80 1016.6
20260906044559 62 356 0.0 2.0 0.00 0.00 0.00 80 1016.5
20260906043050 62 349 0.0 2.0 0.00 0.00 0.00 80 1016.5
20260906041547 62 357 0.0 3.0 0.00 0.00 0.00 80 1016.4
20260906040047 63 354 0.0 2.0 0.00 0.00 0.00 80 1016.5
20260906034540 63 6 0.0 2.0 0.00 0.00 0.00 80 1016.5
20260906033045 63 345 0.0 1.0 0.00 0.00 0.00 80 1016.3
20260906031539 63 9 0.0 2.0 0.00 0.00 0.00 80 1016.1
20260906030033 64 359 0.0 3.0 0.00 0.00 0.00 81 1016.4
20260906024541 64 11 0.0 3.0 0.00 0.00 0.00 81 1016.4
20260906023026 64 356 0.0 4.0 0.00 0.00 0.00 81 1016.5
20260906021523 65 20 0.0 6.0 0.00 0.00 0.00 81 1016.6
20260906020019 65 306 0.0 1.0 0.00 0.00 0.00 81 1016.4
20260906014524 66 57 0.0 6.0 0.00 0.00 0.00 81 1016.3
20260906013033 66 338 0.0 4.0 0.00 0.00 0.00 81 1016.3
20260906011509 67 240 0.0 4.0 0.00 0.00 0.00 81 1016.1
20260906010006 68 297 0.0 3.0 0.00 0.00 0.00 82 1015.8
20260906004504 68 65 0.0 5.0 0.00 0.00 0.00 82 1015.7
20260906003114 69 323 0.0 4.0 0.00 0.00 0.00 82 1015.5
20260906001658 70 238 1.0 5.0 0.00 0.00 0.00 82 1015.6
20260906000055 71 16 1.0 5.0 0.00 0.00 0.00 82 1015.4
20260905234554 72 13 1.0 4.0 0.00 0.00 0.00 83 1015.4
20260905233049 74 268 0.0 4.0 0.00 0.00 0.00 83 1015.3
20260905231546 75 339 1.0 5.0 0.00 0.00 0.00 83 1015.2
20260905230044 75 304 1.0 5.0 0.00 0.00 0.00 83 1015.1
20260905224641 75 13 1.0 5.0 0.00 0.00 0.00 83 1015.0
20260905223038 76 49 1.0 8.0 0.00 0.00 0.00 83 1014.9
20260905221549 76 60 1.0 6.0 0.00 0.00 0.00 84 1014.8
20260905220033 77 37 1.0 12.0 0.00 0.00 0.00 84 1014.6
20260905214532 78 347 4.0 10.0 0.00 0.00 0.00 84 1014.7
20260905213029 80 46 2.0 6.0 0.00 0.00 0.00 84 1014.5
20260905211536 79 153 1.0 8.0 0.00 0.00 0.00 84 1014.5
20260905210024 81 323 0.0 5.0 0.00 0.00 0.00 85 1014.5
20260905204527 80 212 3.0 10.0 0.00 0.00 0.00 85 1014.3
20260905203019 81 337 2.0 7.0 0.00 0.00 0.00 85 1014.4
20260905201517 80 327 2.0 5.0 0.00 0.00 0.00 85 1014.5
20260905200019 81 53 1.0 10.0 0.00 0.00 0.00 85 1014.3
20260905194513 82 20 0.0 4.0 0.00 0.00 0.00 85 1014.4
20260905193010 82 80 0.0 6.0 0.00 0.00 0.00 85 1014.5
20260905191607 82 48 1.0 3.0 0.00 0.00 0.00 85 1014.5
20260905190005 81 310 1.0 5.0 0.00 0.00 0.00 86 1014.8
20260905184504 81 57 1.0 3.0 0.00 0.00 0.00 86 1014.8
20260905183000 80 65 0.0 8.0 0.00 0.00 0.00 86 1014.8
20260905181609 81 187 0.0 6.0 0.00 0.00 0.00 86 1014.8
20260905180153 80 295 1.0 7.0 0.00 0.00 0.00 86 1014.9
20260905174554 80 337 1.0 5.0 0.00 0.00 0.00 86 1014.9
20260905173048 79 32 1.0 6.0 0.00 0.00 0.00 86 1015.1
20260905171542 79 274 1.0 3.0 0.00 0.00 0.00 86 1015.3
20260905170040 78 20 1.0 5.0 0.00 0.00 0.00 86 1015.3
20260905164537 78 93 1.0 5.0 0.00 0.00 0.00 85 1015.2
20260905163036 78 8 1.0 4.0 0.00 0.00 0.00 86 1015.3
20260905161537 78 326 1.0 6.0 0.00 0.00 0.00 86 1015.1
20260905160032 77 188 1.0 6.0 0.00 0.00 0.00 85 1015.2
20260905154527 77 113 0.0 2.0 0.00 0.03 0.00 85 1015.1
20260905153024 76 63 0.0 4.0 0.00 0.03 0.00 85 1015.2
20260905151518 75 8 1.0 5.0 0.00 0.03 0.00 85 1015.0
20260905150012 73 39 0.0 3.0 0.00 0.03 0.00 85 1014.9
20260905144508 72 79 0.0 8.0 0.00 0.10 0.00 85 1014.9
20260905143006 72 82 0.0 3.0 0.00 0.10 0.00 85 1014.7
20260905141502 71 306 0.0 2.0 0.00 0.10 0.00 85 1014.7
20260905140059 71 224 0.0 1.0 0.00 0.10 0.00 85 1014.9
20260905134555 70 13 0.0 3.0 0.00 0.15 0.00 85 1014.7
20260905133054 70 338 0.0 1.0 0.00 0.15 0.00 84 1014.7
20260905131603 69 290 0.0 1.0 0.00 0.15 0.00 84 1014.9
20260905130050 69 346 0.0 1.0 0.00 0.15 0.00 84 1014.8
20260905124546 68 290 0.0 1.0 0.00 0.16 0.00 84 1014.7
20260905123044 68 331 0.0 1.0 0.00 0.16 0.00 84 1014.8
20260905121542 68 229 0.0 0.0 0.00 0.16 0.00 84 1014.6
20260905120039 67 245 0.0 1.0 0.00 0.16 0.00 84 1014.5
20260905114537 67 269 0.0 0.0 0.00 0.19 0.00 84 1014.5
20260905113034 67 198 0.0 0.0 0.00 0.19 0.00 84 1014.4
20260905111543 67 162 0.0 0.0 0.00 0.19 0.00 84 1014.1
20260905110031 67 167 0.0 0.0 0.00 0.19 0.00 84 1013.9
20260905104531 67 169 0.0 0.0 0.00 0.19 0.00 84 1014.2
20260905103031 67 355 0.0 0.0 0.00 0.19 0.00 84 1014.4
20260905101529 66 6 0.0 0.0 0.00 0.19 0.00 84 1014.2
20260905100024 67 6 0.0 0.0 0.00 0.19 0.00 84 1014.2
20260905094519 67 6 0.0 0.0 0.00 0.19 0.00 84 1014.4
20260905093019 67 6 0.0 0.0 0.00 0.19 0.00 84 1014.1
20260905091513 67 262 0.0 0.0 0.00 0.19 0.00 84 1014.2
20260905090010 68 352 0.0 0.0 0.00 0.19 0.00 84 1013.7
20260905084512 68 3 0.0 0.0 0.00 0.19 0.00 84 1013.3
20260905083007 68 9 0.0 0.0 0.00 0.19 0.00 84 1013.3